Tracking 28518 objects as of 2-Mar-2024
HD Live streaming from Space Station
objects crossing your sky now

STARLINK-30946

Track STARLINK-30946 now!
10-day predictions
STARLINK-30946 is classified as:


NORAD ID: 58450
Int'l Code: 2023-183P
Perigee: 565.6 km
Apogee: 566.8 km
Inclination: 43.0 °
Period: 95.8 minutes
Semi major axis: 6937 km
RCS: Unknown
Launch date: November 28, 2023
Source: United States (US)
Launch site: AIR FORCE EASTERN TEST RANGE (AFETR)
Your satellite tracking list
Your tracking list is empty




NASA's NSSDC Master Catalog

Two Line Element Set (TLE):
1 58450U 23183P   24061.39740112  .00002455  00000-0  19668-3 0  9998
2 58450  42.9982  95.1932 0000923 279.6808  80.3929 15.02543258 15654
Source of the keplerian elements: AFSPC